Regional Weather Roundup
Issued by NWS

Home | Current Version | Previous Version | Graphics & Text | Print | Product List | Glossary On
Versions: 1 2 3 4 5 6 7 8 9 10 11 12 13 14 15 16 17 18 19 20 21 22 23 24 25 26 27 28 29 30 31 32 33 34 35 36 37 38 39 40 41 42 43 44 45 46 47 48 49 50
000
ASUS43 KIND 261859
RWRIN

WEATHER ROUNDUP FOR INDIANA
NATIONAL WEATHER SERVICE INDIANAPOLIS IN
300 PM EDT SUN APR 26 2015

NOTE: "FAIR" INDICATES FEW OR NO CLOUDS BELOW 12,000 FEET WITH NO
SIGNIFICANT WEATHER AND/OR OBSTRUCTIONS TO VISIBILITY.

* - STATION DOES NOT REPORT WEATHER SUCH AS PRECIPITATION OR FOG.

+ - STATION NOT QUALITY CONTROLLED BY THE NATIONAL WEATHER SERVICE.
    USE DATA WITH CAUTION...ESPECIALLY DEWPOINT AND RELATIVE
    HUMIDITY OBSERVATIONS.

INZ001>003-010>013-019-020-262000-
NORTHWEST INDIANA

CITY           SKY/WX    TMP DP  RH WIND       PRES   REMARKS
GARY /AIRPORT/ SUNNY     50  30  46 N18       30.02F
KNOX *+        SUNNY     54   7  15 N21       29.96S

$$

LMZ046-743>745-262000-
SOUTHERN LAKE MICHIGAN

STATION/POSITION TIME  TEMP    WIND        PRES    WAVE
                       AIR SEA DIR/SP/G            HT
                 (UTC) (F)     (DEG/KT/KT) (MB)    (FT)
BURNS HARBOR     1800   40     340/ 11/ 13 1016.9S
MICHIGAN CITY    1800   41     330/ 13/ 14   N/A
5NW MICH CITY    1800   39 45  360/ 12/ 16   N/A     2

$$

INZ004-005-014>016-021>024-262000-
NORTH CENTRAL INDIANA

CITY           SKY/WX    TMP DP  RH WIND       PRES   REMARKS
ELKHART        MOSUNNY   57  23  26 N7G16     29.94F
GOSHEN         MOSUNNY   57  33  40 NE16G25   29.93F
SOUTH BEND     SUNNY     56  30  37 N15G23    29.97S
WARSAW +       MOSUNNY   54  32  43 N15       29.93F

$$

INZ006>009-017-018-025>027-262000-
NORTHEAST INDIANA

CITY           SKY/WX    TMP DP  RH WIND       PRES   REMARKS
ANGOLA *+      PTSUNNY   54  30  40 VRB6      29.91F
FORT WAYNE     MOSUNNY   56  35  45 N14G23    29.91F

$$

INZ028-029-035-036-043>045-051>053-262000-
WEST CENTRAL INDIANA

CITY           SKY/WX    TMP DP  RH WIND       PRES   REMARKS
CRAWFORDSVL +  PTSUNNY   53  31  44 N12G22    29.93F
GREENCASTLE +  SUNNY     55  32  41 N15       29.92S
LAFAYETTE      MOSUNNY   55  34  45 N14G24    29.94F
TERRE HAUTE    SUNNY     58  37  45 N9G17     29.92S

$$

INZ030>032-037>040-046>048-054>057-064-065-262000-
CENTRAL INDIANA

CITY           SKY/WX    TMP DP  RH WIND       PRES   REMARKS
COLUMBUS       MOSUNNY   55  32  41 NE13      29.90S
FRANKFORT +    MOSUNNY   54  37  51 N12G17    29.95F
GREENWOOD *+   SUNNY     55  32  41 N14G20    29.91S
INDIANAPOLIS   MOSUNNY   56  35  45 N15G21    29.90S
-EAGLE CREEK   MOSUNNY   55  37  50 N14G20    29.91S
KOKOMO *+      PTSUNNY   55  36  47 N18       29.92F
MT COMFORT *+  MOSUNNY   55  27  33 N16       29.91S
SHELBYVILLE    SUNNY     58  36  43 N13G20    29.89S

$$

INZ033-034-041-042-049-050-058-059-262000-
EAST CENTRAL INDIANA

CITY           SKY/WX    TMP DP  RH WIND       PRES   REMARKS
MUNCIE         MOSUNNY   55  37  50 N14G22    29.91S

$$

INZ060-061-067>069-081>083-085>088-262000-
SOUTHWEST INDIANA

CITY           SKY/WX    TMP DP  RH WIND       PRES   REMARKS
EVANSVILLE     SUNNY     61  36  39 N10       29.88F
HUNTINGBURG *+ SUNNY     61  39  44 NE10      29.87F

$$

INZ062-063-066-070>080-084-089>092-262000-
SOUTH CENTRAL AND SOUTHEAST INDIANA

CITY           SKY/WX    TMP DP  RH WIND       PRES   REMARKS
BLOOMINGTON    SUNNY     59  33  37 NE14      29.89S
MADISON *+     SUNNY     59  30  33 N7G16     29.88R
SEYMOUR +      SUNNY     61  36  39 N12G23    29.88R

$$




USA.gov is the U.S. government's official web portal to all federal, state and local government web resources and services.